WetterOnline ( http://www.wetteronline.ch )

Wetter aktuell Kassel

Aktuelles Wetter: Schauenburg-Elgershausen (317m)

6-stündlich | Neueste Meldungen
Ortszeit Temperatur Wetter
Do, 21.03. 7:00 1.5° C wolkig
Do, 21.03. 1:00 5.0° C wolkig
Mi, 20.03. 19:00 9.9° C bedeckt
Mi, 20.03. 13:00 10.0° C leicht bewölkt
Mi, 20.03. 7:00 -1.8° C wolkenlos
Mi, 20.03. 1:00 -0.8° C wolkenlos
Di, 19.03. 19:00 3.5° C wolkenlos
Di, 19.03. 13:00 6.0° C bewölkt
Ortszeit Temperatur Wetter
Do, 21.03. 11:10 10.7° C wolkig
Do, 21.03. 11:00 9.9° C leicht bewölkt
Do, 21.03. 10:50 9.9° C wolkig
Do, 21.03. 10:40 9.1° C wolkig
Do, 21.03. 10:30 8.8° C wolkig
Do, 21.03. 10:20 8.8° C wolkig
Do, 21.03. 10:00 7.5° C leicht bewölkt
Do, 21.03. 9:30 6.8° C leicht bewölkt
Do, 21.03. 9:00 6.0° C fast wolkenlos
Do, 21.03. 8:30 6.1° C wolkenlos
Do, 21.03. 8:00 3.7° C fast wolkenlos
Ortszeit Relative Feuchte Sichtweite
Do, 21.03. 7:00 88% 26 km
Do, 21.03. 1:00 84% 27 km
Mi, 20.03. 19:00 65% 40 km
Mi, 20.03. 13:00 53% 35 km
Mi, 20.03. 7:00 88% 25 km
Mi, 20.03. 1:00 85% 35 km
Di, 19.03. 19:00 70% 35 km
Di, 19.03. 13:00 56% 30 km
Ortszeit Relative Feuchte Sichtweite
Do, 21.03. 11:10 60% -
Do, 21.03. 11:00 66% 35 km
Do, 21.03. 10:50 66% -
Do, 21.03. 10:40 65% -
Do, 21.03. 10:30 67% 30 km
Do, 21.03. 10:20 67% -
Do, 21.03. 10:00 73% 23 km
Do, 21.03. 9:30 76% 30 km
Do, 21.03. 9:00 75% 26 km
Do, 21.03. 8:30 73% 30 km
Do, 21.03. 8:00 84% 21 km
Ortszeit Niederschlagsmenge Niederschlagsart
Do, 21.03. 7:00 0.0 l/m2 in 12 Std. -
Do, 21.03. 1:00 0.0 l/m2 in 6 Std. -
Mi, 20.03. 19:00 0.0 l/m2 in 12 Std. -
Mi, 20.03. 13:00 0.0 l/m2 in 6 Std. -
Mi, 20.03. 7:00 0.0 l/m2 in 12 Std. -
Mi, 20.03. 1:00 0.0 l/m2 in 6 Std. -
Di, 19.03. 19:00 0.1 l/m2 in 12 Std. -
Di, 19.03. 13:00 0.1 l/m2 in 6 Std. Regen
Ortszeit Niederschlagsmenge Niederschlagsart
Do, 21.03. 11:10 keine Meldung -
Do, 21.03. 11:00 0.0 l/m2 in 1 Std. -
Do, 21.03. 10:50 keine Meldung -
Do, 21.03. 10:40 keine Meldung -
Do, 21.03. 10:30 0.0 l/m2 in 1 Std. -
Do, 21.03. 10:20 keine Meldung -
Do, 21.03. 10:00 0.0 l/m2 in 1 Std. -
Do, 21.03. 9:30 0.0 l/m2 in 1 Std. -
Do, 21.03. 9:00 0.0 l/m2 in 1 Std. -
Do, 21.03. 8:30 0.0 l/m2 in 1 Std. -
Do, 21.03. 8:00 0.0 l/m2 in 1 Std. -
Ortszeit Stärke Spitze Richtung
km/h Bft. km/h Grad Sektor
Do, 21.03. 7:00 4 1 7 280° W
Do, 21.03. 1:00 6 1 9 340° N
Mi, 20.03. 19:00 6 1 20 330° NW
Mi, 20.03. 13:00 14 3 25 230° SW
Mi, 20.03. 7:00 4 1 7 190° S
Mi, 20.03. 1:00 7 2 11 340° N
Di, 19.03. 19:00 4 1 29 320° NW
Di, 19.03. 13:00 11 2 29 260° W
Ortszeit Stärke Spitze Richtung
km/h Bft. km/h Grad Sektor
Do, 21.03. 11:10 7 2 - 130° SO
Do, 21.03. 11:00 7 2 11 170° S
Do, 21.03. 10:50 7 2 - 170° S
Do, 21.03. 10:40 7 2 - 160° S
Do, 21.03. 10:30 7 2 11 160° S
Do, 21.03. 10:20 7 2 - 160° S
Do, 21.03. 10:00 7 2 11 160° S
Do, 21.03. 9:30 4 1 7 140° SO
Do, 21.03. 9:00 4 1 7 150° SO
Do, 21.03. 8:30 0 0 4 - -
Do, 21.03. 8:00 4 1 4 280° W
Ortszeit Untergrenze Bedeckung Gattung
total tief tief mittel hoch
Do, 21.03. 7:00 6900 m 8/8 1/8 - - -
Do, 21.03. 1:00 7500 m 8/8 0/8 - - -
Mi, 20.03. 19:00 1380 m 8/8 8/8 - - -
Mi, 20.03. 13:00 9000 m 7/8 0/8 - - -
Mi, 20.03. 7:00 - 0/8 0/8 - - -
Mi, 20.03. 1:00 - 0/8 0/8 - - -
Di, 19.03. 19:00 - 0/8 0/8 - - -
Di, 19.03. 13:00 990 m 7/8 7/8 - - -
Ortszeit Bedeckungsgrad in Achtel und Wolkenuntergrenze
Do, 21.03. 11:10 7(9000m) 7(10500m)
Do, 21.03. 11:00 4(9000m) 7(10500m)
Do, 21.03. 10:50 4(9000m) 7(10500m)
Do, 21.03. 10:40 7(9000m) 7(10500m)
Do, 21.03. 10:30 8(9000m)
Do, 21.03. 10:20 8(9000m)
Do, 21.03. 10:00 5(10500m) 7(10500m)
Do, 21.03. 9:30 3(9000m) 6(10500m)
Do, 21.03. 9:00 2(9000m)
Do, 21.03. 8:30 keine Wolken
Do, 21.03. 8:00 2(10500m)
Ortszeit Luftdruck NN (hPa) Tendenz (hPa in 3 Std.)
Do, 21.03. 7:00 1036 + 0,3
Do, 21.03. 1:00 1036 + 0,2
Mi, 20.03. 19:00 1034 + 0,5
Mi, 20.03. 13:00 1034 - 0,1
Mi, 20.03. 7:00 1035 + 0,7
Mi, 20.03. 1:00 1034 + 0,6
Di, 19.03. 19:00 1031 + 1,2
Di, 19.03. 13:00 1029 + 0,6
Ortszeit Luftdruck NN (hPa) Tendenz (hPa in 3 Std.)
Do, 21.03. 11:10 1035 keine Meldung
Do, 21.03. 11:00 1036 0,0
Do, 21.03. 10:50 1036 keine Meldung
Do, 21.03. 10:40 1036 keine Meldung
Do, 21.03. 10:30 1036 + 0,3
Do, 21.03. 10:20 1036 keine Meldung
Do, 21.03. 10:00 1036 + 0,6
Do, 21.03. 9:30 1036 + 0,8
Do, 21.03. 9:00 1036 + 0,8
Do, 21.03. 8:30 1036 + 0,7
Do, 21.03. 8:00 1036 + 0,8
Ortszeit Schneehöhe (cm)
Do, 21.03. 7:00 0
Do, 21.03. 1:00 0
Mi, 20.03. 19:00 0
Mi, 20.03. 13:00 0
Mi, 20.03. 7:00 0
Mi, 20.03. 1:00 0
Di, 19.03. 19:00 0
Di, 19.03. 13:00 0
Ortszeit Schneehöhe (cm)
Do, 21.03. 11:10 0
Do, 21.03. 11:00 0
Do, 21.03. 10:50 0
Do, 21.03. 10:40 0
Do, 21.03. 10:30 0
Do, 21.03. 10:20 0
Do, 21.03. 10:00 0
Do, 21.03. 9:30 0
Do, 21.03. 9:00 0
Do, 21.03. 8:30 0
Do, 21.03. 8:00 0
Link zu dieser Seite / Seite empfehlen

Das Wetter in ...